,,,PA_Meas_PMT16A,,PR_Meas_QMR101_102,,RH_Meas_QMH101,,SR_Meas_QMS101,,TA_Meas_QMH101,,GenWind,,GenWind,
date,time,status,PA,status,PR,status,RH,status,SR,status,TA,status,DirAvg,status,SpdAvg,
2009-12-19, 00:00:04,VALID,1002.89,VALID,0,VALID,93.1043,VALID,0,VALID,23.6232,VALID,281,VALID,0.758594,
2009-12-19, 00:01:04,VALID,1002.87,VALID,0,VALID,93.0127,VALID,0,VALID,23.5823,VALID,281,VALID,0.613672,
2009-12-19, 00:02:04,VALID,1002.89,VALID,0,VALID,92.8525,VALID,0.112286,VALID,23.5061,VALID,281,VALID,0.445703,
2009-12-19, 00:03:04,VALID,1002.85,VALID,0,VALID,92.738,VALID,0,VALID,23.4263,VALID,53,VALID,0.576172,
2009-12-19, 00:04:04,VALID,1002.85,VALID,0,VALID,92.7533,VALID,0,VALID,23.4085,VALID,55,VALID,0.564844,
2009-12-19, 00:05:04,VALID,1002.83,VALID,0,VALID,92.7991,VALID,0,VALID,23.35,VALID,55,VALID,0.755469,
2009-12-19, 00:06:04,VALID,1002.82,VALID,0,VALID,92.8677,VALID,0,VALID,23.3482,VALID,55,VALID,0.597266,
2009-12-19, 00:07:04,VALID,1002.81,VALID,0,VALID,92.8372,VALID,0,VALID,23.35,VALID,55,VALID,0.333984,
2009-12-19, 00:08:04,VALID,1002.81,VALID,0,VALID,92.7228,VALID,0,VALID,23.2915,VALID,55,VALID,0.148828,
2009-12-19, 00:09:04,VALID,1002.8,VALID,0,VALID,92.6694,VALID,0,VALID,23.1939,VALID,55,VALID,0,
2009-12-19, 00:10:04,VALID,1002.83,VALID,0,VALID,92.6846,VALID,0,VALID,23.1744,VALID,55,VALID,0.191406,
2009-12-19, 00:11:04,VALID,1002.81,VALID,0,VALID,92.8143,VALID,0,VALID,23.1336,VALID,30,VALID,0.369141,
2009-12-19, 00:12:04,VALID,1002.79,VALID,0,VALID,93.0432,VALID,0,VALID,23.2329,VALID,352,VALID,0.477344,
2009-12-19, 00:13:04,VALID,1002.79,VALID,0,VALID,93.2187,VALID,0,VALID,23.3305,VALID,342,VALID,0.652344,
2009-12-19, 00:14:04,VALID,1002.76,VALID,0,VALID,93.234,VALID,0,VALID,23.35,VALID,323,VALID,0.519531,
2009-12-19, 00:15:04,VALID,1002.75,VALID,0,VALID,93.15,VALID,0,VALID,23.311,VALID,317,VALID,0.611328,
2009-12-19, 00:16:04,VALID,1002.74,VALID,0,VALID,93.2187,VALID,0,VALID,23.3695,VALID,314,VALID,0.185156,
2009-12-19, 00:17:04,VALID,1002.73,VALID,0,VALID,93.2416,VALID,0,VALID,23.389,VALID,314,VALID,0.0078125,
2009-12-19, 00:18:04,VALID,1002.68,VALID,0,VALID,93.2492,VALID,0,VALID,23.4085,VALID,314,VALID,0,
2009-12-19, 00:19:04,VALID,1002.66,VALID,0,VALID,93.2797,VALID,0,VALID,23.4475,VALID,314,VALID,0,
2009-12-19, 00:20:04,VALID,1002.64,VALID,0,VALID,93.2187,VALID,0,VALID,23.4475,VALID,314,VALID,0,
2009-12-19, 00:21:04,VALID,1002.62,VALID,0,VALID,93.234,VALID,0,VALID,23.428,VALID,314,VALID,0,
2009-12-19, 00:22:04,VALID,1002.61,VALID,0,VALID,93.1805,VALID,0,VALID,23.4085,VALID,314,VALID,0,
2009-12-19, 00:23:04,VALID,1002.55,VALID,0,VALID,93.295,VALID,0,VALID,23.4067,VALID,313,VALID,0,
2009-12-19, 00:24:04,VALID,1002.56,VALID,0,VALID,93.44,VALID,0,VALID,23.5061,VALID,313,VALID,0.788281,
2009-12-19, 00:25:04,VALID,1002.55,VALID,0,VALID,93.44,VALID,0,VALID,23.5646,VALID,314,VALID,0.753516,
2009-12-19, 00:26:04,VALID,1002.55,VALID,0,VALID,93.4781,VALID,0,VALID,23.6036,VALID,314,VALID,0.541406,
2009-12-19, 00:27:04,VALID,1002.55,VALID,0,VALID,93.4247,VALID,0,VALID,23.6232,VALID,314,VALID,0.476563,
2009-12-19, 00:28:04,VALID,1002.54,VALID,0,VALID,93.4094,VALID,0,VALID,23.6427,VALID,314,VALID,0.280078,
2009-12-19, 00:29:04,VALID,1002.58,VALID,0,VALID,93.3866,VALID,0,VALID,23.6427,VALID,314,VALID,0.323047,
2009-12-19, 00:30:04,VALID,1002.58,VALID,0,VALID,93.3103,VALID,0,VALID,23.6232,VALID,314,VALID,0.0269531,
2009-12-19, 00:31:04,VALID,1002.56,VALID,0,VALID,93.2797,VALID,0.112286,VALID,23.6019,VALID,314,VALID,0,
2009-12-19, 00:32:04,VALID,1002.53,VALID,0,VALID,93.234,VALID,0,VALID,23.5628,VALID,314,VALID,0,
2009-12-19, 00:33:04,VALID,1002.52,VALID,0,VALID,93.1805,VALID,0.112286,VALID,23.5433,VALID,314,VALID,0,
2009-12-19, 00:34:04,VALID,1002.52,VALID,0,VALID,93.1271,VALID,0,VALID,23.5256,VALID,314,VALID,0,
2009-12-19, 00:35:04,VALID,1002.54,VALID,0,VALID,93.15,VALID,0,VALID,23.5238,VALID,314,VALID,0,
2009-12-19, 00:36:04,VALID,1002.51,VALID,0,VALID,93.1271,VALID,0,VALID,23.5256,VALID,314,VALID,0,
2009-12-19, 00:37:04,VALID,1002.51,VALID,0,VALID,93.1577,VALID,0,VALID,23.5061,VALID,314,VALID,0,
2009-12-19, 00:38:04,VALID,1002.51,VALID,0,VALID,93.1043,VALID,0,VALID,23.5061,VALID,314,VALID,0,
2009-12-19, 00:39:04,VALID,1002.49,VALID,0,VALID,93.0508,VALID,0,VALID,23.4458,VALID,314,VALID,0,
2009-12-19, 00:40:04,VALID,1002.49,VALID,0,VALID,93.0203,VALID,0,VALID,23.4067,VALID,314,VALID,0,
2009-12-19, 00:41:04,VALID,1002.45,VALID,0,VALID,93.0585,VALID,0,VALID,23.4085,VALID,314,VALID,0,
2009-12-19, 00:42:04,VALID,1002.46,VALID,0,VALID,93.0585,VALID,0,VALID,23.3872,VALID,314,VALID,0,
2009-12-19, 00:43:04,VALID,1002.4,VALID,0,VALID,92.9517,VALID,0,VALID,23.3092,VALID,314,VALID,0,
2009-12-19, 00:44:04,VALID,1002.39,VALID,0,VALID,93.1043,VALID,0,VALID,23.35,VALID,314,VALID,0,
2009-12-19, 00:45:04,VALID,1002.37,VALID,0,VALID,92.8067,VALID,0,VALID,23.2507,VALID,314,VALID,0,
2009-12-19, 00:46:04,VALID,1002.35,VALID,0,VALID,92.9288,VALID,0,VALID,23.2117,VALID,314,VALID,0,
2009-12-19, 00:47:04,VALID,1002.33,VALID,0,VALID,92.9135,VALID,0,VALID,23.1939,VALID,314,VALID,0,
2009-12-19, 00:48:04,VALID,1002.31,VALID,0,VALID,92.9288,VALID,0,VALID,23.1744,VALID,314,VALID,0,
2009-12-19, 00:49:04,VALID,1002.32,VALID,0,VALID,92.9822,VALID,0,VALID,23.1549,VALID,314,VALID,0,
2009-12-19, 00:50:04,VALID,1002.28,VALID,0,VALID,93.0051,VALID,0,VALID,23.1549,VALID,314,VALID,0,
2009-12-19, 00:51:04,VALID,1002.28,VALID,0,VALID,93.1271,VALID,0.112286,VALID,23.1744,VALID,314,VALID,0,
2009-12-19, 00:52:04,VALID,1002.27,VALID,0,VALID,93.2416,VALID,0,VALID,23.2329,VALID,314,VALID,0,
2009-12-19, 00:53:04,VALID,1002.26,VALID,0,VALID,93.2034,VALID,0.112286,VALID,23.2312,VALID,314,VALID,0,
2009-12-19, 00:54:04,VALID,1002.26,VALID,0,VALID,93.1653,VALID,0,VALID,23.2117,VALID,314,VALID,0,
2009-12-19, 00:55:04,VALID,1002.25,VALID,0,VALID,93.1882,VALID,0,VALID,23.2329,VALID,314,VALID,0,
2009-12-19, 00:56:04,VALID,1002.21,VALID,0,VALID,93.0737,VALID,0,VALID,23.1939,VALID,314,VALID,0,
2009-12-19, 00:57:04,VALID,1002.22,VALID,0,VALID,93.1729,VALID,0,VALID,23.1921,VALID,314,VALID,0,
2009-12-19, 00:58:04,VALID,1002.21,VALID,0,VALID,93.0661,VALID,0,VALID,23.1939,VALID,314,VALID,0,
2009-12-19, 00:59:04,VALID,1002.21,VALID,0,VALID,93.0966,VALID,0,VALID,23.1531,VALID,36,VALID,0.344531,
2009-12-19, 01:00:04,VALID,1002.23,VALID,0,VALID,93.1195,VALID,0,VALID,23.1744,VALID,63,VALID,0.669141,
2009-12-19, 01:01:04,VALID,1002.23,VALID,0,VALID,93.0508,VALID,0.112286,VALID,23.1354,VALID,63,VALID,0.473047,
2009-12-19, 01:02:04,VALID,1002.25,VALID,0,VALID,93.0585,VALID,0,VALID,23.1531,VALID,63,VALID,0.467578,
2009-12-19, 01:03:04,VALID,1002.25,VALID,0,VALID,92.9517,VALID,0.112286,VALID,23.1336,VALID,63,VALID,0.51875,
2009-12-19, 01:04:04,VALID,1002.26,VALID,0,VALID,92.8525,VALID,0,VALID,23.1531,VALID,63,VALID,0.075,
2009-12-19, 01:05:04,VALID,1002.26,VALID,0,VALID,92.7914,VALID,0,VALID,23.1336,VALID,63,VALID,0,
2009-12-19, 01:06:04,VALID,1002.25,VALID,0,VALID,92.7457,VALID,0,VALID,23.1744,VALID,63,VALID,0,
2009-12-19, 01:07:04,VALID,1002.29,VALID,0,VALID,92.6999,VALID,0,VALID,23.1939,VALID,63,VALID,0,
2009-12-19, 01:08:04,VALID,1002.28,VALID,0,VALID,92.6007,VALID,0,VALID,23.1726,VALID,63,VALID,0,
2009-12-19, 01:09:04,VALID,1002.28,VALID,0,VALID,92.5015,VALID,0,VALID,23.1726,VALID,63,VALID,0,
2009-12-19, 01:10:04,VALID,1002.22,VALID,0,VALID,92.3184,VALID,0,VALID,23.1549,VALID,63,VALID,0,
2009-12-19, 01:11:04,VALID,1002.21,VALID,0,VALID,92.4634,VALID,0,VALID,23.1549,VALID,61,VALID,1.08164,
2009-12-19, 01:12:04,VALID,1002.22,VALID,0,VALID,92.6312,VALID,0,VALID,23.1921,VALID,60,VALID,1.06445,
2009-12-19, 01:13:04,VALID,1002.15,VALID,0,VALID,92.5854,VALID,0,VALID,23.2134,VALID,55,VALID,1.13125,
2009-12-19, 01:14:04,VALID,1002.17,VALID,0,VALID,92.6388,VALID,0,VALID,23.2134,VALID,49,VALID,0.994141,
2009-12-19, 01:15:04,VALID,1002.15,VALID,0,VALID,92.677,VALID,0,VALID,23.1939,VALID,45,VALID,0.974219,
2009-12-19, 01:16:04,VALID,1002.18,VALID,0,VALID,92.6465,VALID,0,VALID,23.1744,VALID,42,VALID,0.886328,
2009-12-19, 01:17:04,VALID,1002.2,VALID,0,VALID,92.6694,VALID,0,VALID,23.1531,VALID,40,VALID,0.887891,
2009-12-19, 01:18:04,VALID,1002.19,VALID,0,VALID,92.677,VALID,0,VALID,23.1549,VALID,36,VALID,0.884766,
2009-12-19, 01:19:04,VALID,1002.21,VALID,0,VALID,92.7075,VALID,0,VALID,23.1159,VALID,34,VALID,0.846094,
2009-12-19, 01:20:04,VALID,1002.22,VALID,0,VALID,92.7914,VALID,0,VALID,23.0946,VALID,33,VALID,0.766016,
2009-12-19, 01:21:04,VALID,1002.22,VALID,0,VALID,92.7457,VALID,0,VALID,23.0964,VALID,33,VALID,0.688672,
2009-12-19, 01:22:04,VALID,1002.22,VALID,0,VALID,92.7991,VALID,0,VALID,23.0769,VALID,33,VALID,0.658203,
2009-12-19, 01:23:04,VALID,1002.23,VALID,0,VALID,92.8143,VALID,0,VALID,23.0556,VALID,33,VALID,0.547266,
2009-12-19, 01:24:04,VALID,1002.19,VALID,0,VALID,92.8525,VALID,0,VALID,23.0769,VALID,33,VALID,0.5625,
2009-12-19, 01:25:04,VALID,1002.19,VALID,0,VALID,92.8983,VALID,0,VALID,23.0573,VALID,33,VALID,0.597656,
2009-12-19, 01:26:04,VALID,1002.18,VALID,0,VALID,92.9364,VALID,0,VALID,23.0378,VALID,33,VALID,0.541797,
2009-12-19, 01:27:04,VALID,1002.15,VALID,0,VALID,92.9364,VALID,0,VALID,23.0378,VALID,33,VALID,0.535156,
2009-12-19, 01:28:04,VALID,1002.15,VALID,0,VALID,93.0966,VALID,0,VALID,23.0573,VALID,34,VALID,0.55625,
2009-12-19, 01:29:04,VALID,1002.09,VALID,0,VALID,93.1577,VALID,0,VALID,23.1159,VALID,35,VALID,0.542188,
2009-12-19, 01:30:04,VALID,1002.07,VALID,0,VALID,93.2034,VALID,0,VALID,23.1354,VALID,42,VALID,0.648438,
2009-12-19, 01:31:04,VALID,1002.07,VALID,0,VALID,93.2263,VALID,0,VALID,23.1549,VALID,42,VALID,0.609375,
2009-12-19, 01:32:04,VALID,1002.05,VALID,0,VALID,93.1577,VALID,0,VALID,23.1336,VALID,42,VALID,0.473828,
2009-12-19, 01:33:04,VALID,1002,VALID,0,VALID,93.2111,VALID,0,VALID,23.1336,VALID,42,VALID,0.362891,
2009-12-19, 01:34:04,VALID,1002.01,VALID,0,VALID,93.1958,VALID,0.112286,VALID,23.1336,VALID,42,VALID,0.327734,
2009-12-19, 01:35:04,VALID,1002,VALID,0,VALID,93.1195,VALID,0,VALID,23.0946,VALID,42,VALID,0.221875,
2009-12-19, 01:36:04,VALID,1001.96,VALID,0,VALID,93.1043,VALID,0,VALID,23.1159,VALID,42,VALID,0,
2009-12-19, 01:37:04,VALID,1001.98,VALID,0,VALID,93.089,VALID,0,VALID,23.0751,VALID,42,VALID,0,
2009-12-19, 01:38:04,VALID,1001.92,VALID,0,VALID,93.1348,VALID,0,VALID,23.0946,VALID,42,VALID,0,
2009-12-19, 01:39:04,VALID,1001.91,VALID,0,VALID,93.1805,VALID,0,VALID,23.1354,VALID,42,VALID,0,
2009-12-19, 01:40:04,VALID,1001.88,VALID,0,VALID,93.1882,VALID,0,VALID,23.1549,VALID,42,VALID,0,
2009-12-19, 01:41:04,VALID,1001.86,VALID,0,VALID,93.2034,VALID,0,VALID,23.1531,VALID,42,VALID,0,
2009-12-19, 01:42:04,VALID,1001.82,VALID,0,VALID,93.1958,VALID,0,VALID,23.1744,VALID,42,VALID,0,
2009-12-19, 01:43:04,VALID,1001.83,VALID,0,VALID,93.1653,VALID,0,VALID,23.1566,VALID,42,VALID,0,
2009-12-19, 01:44:04,VALID,1001.78,VALID,0,VALID,93.1348,VALID,0,VALID,23.1354,VALID,42,VALID,0,
2009-12-19, 01:45:04,VALID,1001.77,VALID,0,VALID,93.0966,VALID,0,VALID,23.1371,VALID,42,VALID,0,
2009-12-19, 01:46:04,VALID,1001.74,VALID,0,VALID,93.0051,VALID,0,VALID,23.0786,VALID,42,VALID,0,
2009-12-19, 01:47:04,VALID,1001.72,VALID,0,VALID,93.0585,VALID,0,VALID,23.0591,VALID,42,VALID,0,
2009-12-19, 01:48:04,VALID,1001.72,VALID,0,VALID,93.1119,VALID,0,VALID,23.0378,VALID,42,VALID,0,
2009-12-19, 01:49:04,VALID,1001.7,VALID,0,VALID,93.0127,VALID,0,VALID,23.0201,VALID,42,VALID,0,
2009-12-19, 01:50:04,VALID,1001.67,VALID,0,VALID,92.9974,VALID,0,VALID,22.9811,VALID,39,VALID,0,
2009-12-19, 01:51:04,VALID,1001.69,VALID,0,VALID,93.1271,VALID,0,VALID,23.0006,VALID,39,VALID,0,
2009-12-19, 01:52:04,VALID,1001.66,VALID,0,VALID,93.1958,VALID,0,VALID,23.0006,VALID,39,VALID,0,
2009-12-19, 01:53:04,VALID,1001.64,VALID,0,VALID,93.2645,VALID,0,VALID,22.9988,VALID,39,VALID,0,
2009-12-19, 01:54:04,VALID,1001.63,VALID,0,VALID,93.3484,VALID,0,VALID,23.0183,VALID,39,VALID,0,
2009-12-19, 01:55:04,VALID,1001.6,VALID,0,VALID,93.234,VALID,0,VALID,22.9988,VALID,39,VALID,0,
2009-12-19, 01:56:04,VALID,1001.61,VALID,0,VALID,93.2874,VALID,0,VALID,22.9988,VALID,39,VALID,0,
2009-12-19, 01:57:04,VALID,1001.58,VALID,0,VALID,93.4781,VALID,0,VALID,23.0964,VALID,43,VALID,0,
2009-12-19, 01:58:04,VALID,1001.58,VALID,0,VALID,93.5391,VALID,0.112286,VALID,23.1336,VALID,68,VALID,0,
2009-12-19, 01:59:04,VALID,1001.55,VALID,0,VALID,93.5391,VALID,0,VALID,23.1939,VALID,92,VALID,0,
2009-12-19, 02:00:04,VALID,1001.52,VALID,0,VALID,93.5544,VALID,0,VALID,23.2117,VALID,104,VALID,0.497656,
2009-12-19, 02:01:04,VALID,1001.51,VALID,0,VALID,93.4781,VALID,0,VALID,23.2134,VALID,108,VALID,0.716406,
2009-12-19, 02:02:04,VALID,1001.49,VALID,0,VALID,93.4781,VALID,0,VALID,23.2329,VALID,113,VALID,0.738672,
2009-12-19, 02:03:04,VALID,1001.46,VALID,0,VALID,93.4094,VALID,0,VALID,23.2329,VALID,121,VALID,0.831641,
2009-12-19, 02:04:04,VALID,1001.43,VALID,0,VALID,93.4171,VALID,0,VALID,23.2312,VALID,138,VALID,0.975781,
2009-12-19, 02:05:04,VALID,1001.44,VALID,0,VALID,93.3637,VALID,0,VALID,23.2719,VALID,125,VALID,0.819531,
2009-12-19, 02:06:04,VALID,1001.45,VALID,0,VALID,93.2874,VALID,0,VALID,23.2117,VALID,144,VALID,0.94375,
2009-12-19, 02:07:04,VALID,1001.44,VALID,0,VALID,93.2492,VALID,0,VALID,23.2329,VALID,147,VALID,0.975,
2009-12-19, 02:08:04,VALID,1001.45,VALID,0,VALID,93.2797,VALID,0,VALID,23.2524,VALID,159,VALID,0.875781,
2009-12-19, 02:09:04,VALID,1001.45,VALID,0,VALID,93.2568,VALID,0,VALID,23.2507,VALID,162,VALID,0.565625,
2009-12-19, 02:10:04,VALID,1001.45,VALID,0,VALID,93.234,VALID,0,VALID,23.2719,VALID,162,VALID,0,
2009-12-19, 02:11:04,VALID,1001.44,VALID,0,VALID,93.2034,VALID,0,VALID,23.2312,VALID,145,VALID,0.352734,
2009-12-19, 02:12:04,VALID,1001.44,VALID,0,VALID,93.1653,VALID,0,VALID,23.2524,VALID,145,VALID,0.190234,
2009-12-19, 02:13:04,VALID,1001.45,VALID,0,VALID,93.0661,VALID,0,VALID,23.2312,VALID,72,VALID,0.241406,
2009-12-19, 02:14:04,VALID,1001.44,VALID,0,VALID,92.9974,VALID,0,VALID,23.2117,VALID,58,VALID,0.762109,
2009-12-19, 02:15:04,VALID,1001.47,VALID,0,VALID,92.9822,VALID,0,VALID,23.1921,VALID,68,VALID,0.864453,
2009-12-19, 02:16:04,VALID,1001.48,VALID,0,VALID,92.9211,VALID,0,VALID,23.1939,VALID,56,VALID,0.655078,
2009-12-19, 02:17:04,VALID,1001.48,VALID,0,VALID,92.8906,VALID,0,VALID,23.1939,VALID,55,VALID,0.763281,
2009-12-19, 02:18:04,VALID,1001.45,VALID,0,VALID,92.9593,VALID,0,VALID,23.1744,VALID,44,VALID,0.895312,
2009-12-19, 02:19:04,VALID,1001.45,VALID,0,VALID,93.0051,VALID,0,VALID,23.1939,VALID,56,VALID,1.02695,
2009-12-19, 02:20:04,VALID,1001.41,VALID,0,VALID,93.0661,VALID,0,VALID,23.2329,VALID,61,VALID,0.557813,
2009-12-19, 02:21:04,VALID,1001.42,VALID,0,VALID,93.0585,VALID,0,VALID,23.2524,VALID,52,VALID,0.376172,
2009-12-19, 02:22:04,VALID,1001.4,VALID,0,VALID,93.0585,VALID,0,VALID,23.2524,VALID,51,VALID,0.467187,
2009-12-19, 02:23:04,VALID,1001.4,VALID,0,VALID,93.0051,VALID,0,VALID,23.2524,VALID,50,VALID,0.566016,
2009-12-19, 02:24:04,VALID,1001.4,VALID,0,VALID,92.944,VALID,0,VALID,23.2329,VALID,29,VALID,0.475,
2009-12-19, 02:25:04,VALID,1001.42,VALID,0,VALID,92.8448,VALID,0,VALID,23.1921,VALID,17,VALID,0.607422,
2009-12-19, 02:26:04,VALID,1001.41,VALID,0,VALID,92.822,VALID,0,VALID,23.1939,VALID,2,VALID,0.500391,
2009-12-19, 02:27:04,VALID,1001.38,VALID,0,VALID,92.883,VALID,0,VALID,23.2134,VALID,359,VALID,0.409766,
2009-12-19, 02:28:04,VALID,1001.41,VALID,0,VALID,92.8448,VALID,0,VALID,23.1939,VALID,359,VALID,0,
2009-12-19, 02:29:04,VALID,1001.41,VALID,0,VALID,92.8906,VALID,0,VALID,23.1939,VALID,359,VALID,0,
2009-12-19, 02:30:04,VALID,1001.41,VALID,0,VALID,92.8906,VALID,0,VALID,23.2152,VALID,359,VALID,0,
2009-12-19, 02:31:04,VALID,1001.42,VALID,0,VALID,92.8754,VALID,0,VALID,23.1744,VALID,359,VALID,0,
2009-12-19, 02:32:04,VALID,1001.42,VALID,0,VALID,92.8983,VALID,0,VALID,23.1531,VALID,359,VALID,0,
2009-12-19, 02:33:04,VALID,1001.41,VALID,0,VALID,92.8983,VALID,0,VALID,23.1744,VALID,359,VALID,0,
2009-12-19, 02:34:04,VALID,1001.43,VALID,0,VALID,92.8525,VALID,0,VALID,23.1549,VALID,359,VALID,0,
2009-12-19, 02:35:04,VALID,1001.42,VALID,0,VALID,92.7991,VALID,0,VALID,23.1354,VALID,359,VALID,0,
2009-12-19, 02:36:04,VALID,1001.47,VALID,0,VALID,92.822,VALID,0,VALID,23.0964,VALID,17,VALID,0,
2009-12-19, 02:37:04,VALID,1001.47,VALID,0,VALID,92.944,VALID,0,VALID,23.1141,VALID,18,VALID,0,
2009-12-19, 02:38:04,VALID,1001.44,VALID,0,VALID,92.883,VALID,0,VALID,23.0946,VALID,45,VALID,0.983203,
2009-12-19, 02:39:04,VALID,1001.47,VALID,0,VALID,93.0127,VALID,0,VALID,23.1354,VALID,46,VALID,0.935547,
2009-12-19, 02:40:04,VALID,1001.49,VALID,0,VALID,93.0814,VALID,0,VALID,23.1744,VALID,46,VALID,0.753516,
2009-12-19, 02:41:04,VALID,1001.46,VALID,0,VALID,93.0432,VALID,0,VALID,23.1744,VALID,46,VALID,0.616016,
2009-12-19, 02:42:04,VALID,1001.5,VALID,0,VALID,93.0508,VALID,0,VALID,23.2329,VALID,46,VALID,0.548437,
2009-12-19, 02:43:04,VALID,1001.55,VALID,0,VALID,92.883,VALID,0,VALID,23.2134,VALID,46,VALID,0.591016,
2009-12-19, 02:44:04,VALID,1001.56,VALID,0,VALID,92.7914,VALID,0,VALID,23.1744,VALID,28,VALID,0.779297,
2009-12-19, 02:45:04,VALID,1001.57,VALID,0,VALID,92.7075,VALID,0,VALID,23.1744,VALID,28,VALID,0.856641,
2009-12-19, 02:46:04,VALID,1001.56,VALID,0,VALID,92.6999,VALID,0,VALID,23.1744,VALID,28,VALID,0.874219,
2009-12-19, 02:47:04,VALID,1001.56,VALID,0,VALID,92.677,VALID,0,VALID,23.1549,VALID,34,VALID,0.793359,
2009-12-19, 02:48:04,VALID,1001.55,VALID,0,VALID,92.6465,VALID,0,VALID,23.1566,VALID,40,VALID,0.762109,
2009-12-19, 02:49:04,VALID,1001.58,VALID,0,VALID,92.7228,VALID,0,VALID,23.1159,VALID,44,VALID,0.711719,
2009-12-19, 02:50:04,VALID,1001.56,VALID,0,VALID,92.7914,VALID,0,VALID,23.1354,VALID,48,VALID,0.643359,
2009-12-19, 02:51:04,VALID,1001.59,VALID,0,VALID,92.7228,VALID,0,VALID,23.1354,VALID,48,VALID,0.502344,
2009-12-19, 02:52:04,VALID,1001.59,VALID,0,VALID,92.6999,VALID,0,VALID,23.1159,VALID,48,VALID,0,
2009-12-19, 02:53:04,VALID,1001.57,VALID,0,VALID,92.6465,VALID,0,VALID,23.1159,VALID,48,VALID,0,
2009-12-19, 02:54:04,VALID,1001.58,VALID,0,VALID,92.5931,VALID,0,VALID,23.0573,VALID,48,VALID,0.0238281,
2009-12-19, 02:55:04,VALID,1001.61,VALID,0,VALID,92.6694,VALID,0,VALID,23.0573,VALID,48,VALID,0,
2009-12-19, 02:56:04,VALID,1001.58,VALID,0,VALID,92.7685,VALID,0,VALID,23.0573,VALID,48,VALID,0,
2009-12-19, 02:57:04,VALID,1001.63,VALID,0,VALID,92.7685,VALID,0,VALID,23.0751,VALID,48,VALID,0,
2009-12-19, 02:58:04,VALID,1001.65,VALID,0,VALID,92.7685,VALID,0,VALID,23.0769,VALID,48,VALID,0,
2009-12-19, 02:59:05,VALID,1001.65,VALID,0,VALID,92.7609,VALID,0,VALID,23.0573,VALID,58,VALID,0,
2009-12-19, 03:00:05,VALID,1001.63,VALID,0,VALID,92.7609,VALID,0,VALID,23.0573,VALID,86,VALID,0.646484,
2009-12-19, 03:01:05,VALID,1001.62,VALID,0,VALID,92.7457,VALID,0,VALID,23.0378,VALID,86,VALID,0.698047,
2009-12-19, 03:02:05,VALID,1001.61,VALID,0,VALID,92.8372,VALID,0,VALID,23.0378,VALID,86,VALID,0.599609,
2009-12-19, 03:03:05,VALID,1001.61,VALID,0,VALID,92.8296,VALID,0,VALID,23.0183,VALID,86,VALID,0.516797,
2009-12-19, 03:04:05,VALID,1001.63,VALID,0,VALID,92.8601,VALID,0,VALID,23.0378,VALID,87,VALID,0.294141,
2009-12-19, 03:05:05,VALID,1001.63,VALID,0,VALID,92.944,VALID,0,VALID,23.0378,VALID,87,VALID,0,
2009-12-19, 03:06:05,VALID,1001.66,VALID,0,VALID,92.9135,VALID,0,VALID,23.0378,VALID,87,VALID,0,
2009-12-19, 03:07:05,VALID,1001.65,VALID,0,VALID,92.883,VALID,0,VALID,23.0183,VALID,101,VALID,0,
2009-12-19, 03:08:05,VALID,1001.65,VALID,0,VALID,92.8525,VALID,0,VALID,23.0183,VALID,101,VALID,0,
2009-12-19, 03:09:05,VALID,1001.65,VALID,0,VALID,92.8983,VALID,0,VALID,23.0183,VALID,101,VALID,0,
2009-12-19, 03:10:05,VALID,1001.64,VALID,0,VALID,92.8906,VALID,0,VALID,23.0183,VALID,102,VALID,0,
2009-12-19, 03:11:05,VALID,1001.68,VALID,0,VALID,92.9135,VALID,0,VALID,23.0183,VALID,102,VALID,0,
2009-12-19, 03:12:05,VALID,1001.69,VALID,0,VALID,92.9135,VALID,0,VALID,22.9988,VALID,102,VALID,0,
2009-12-19, 03:13:05,VALID,1001.7,VALID,0,VALID,92.8754,VALID,0,VALID,22.9988,VALID,102,VALID,0,
2009-12-19, 03:14:05,VALID,1001.71,VALID,0,VALID,92.9593,VALID,0,VALID,23.0183,VALID,102,VALID,0,
2009-12-19, 03:15:05,VALID,1001.71,VALID,0,VALID,92.9898,VALID,0,VALID,23.0378,VALID,102,VALID,0,
2009-12-19, 03:16:05,VALID,1001.69,VALID,0,VALID,93.0051,VALID,0,VALID,23.0378,VALID,102,VALID,0,
2009-12-19, 03:17:05,VALID,1001.71,VALID,0,VALID,93.0127,VALID,0,VALID,23.0378,VALID,102,VALID,0,
2009-12-19, 03:18:05,VALID,1001.71,VALID,0,VALID,93.0966,VALID,0,VALID,23.0378,VALID,102,VALID,0.500781,
2009-12-19, 03:19:05,VALID,1001.76,VALID,0,VALID,93.0966,VALID,0,VALID,23.0769,VALID,102,VALID,0.689453,
2009-12-19, 03:20:05,VALID,1001.73,VALID,0,VALID,93.1043,VALID,0,VALID,23.0981,VALID,102,VALID,0.501562,
2009-12-19, 03:21:05,VALID,1001.75,VALID,0,VALID,93.1424,VALID,0,VALID,23.0964,VALID,102,VALID,0.342578,
2009-12-19, 03:22:05,VALID,1001.78,VALID,0,VALID,93.1424,VALID,0,VALID,23.1159,VALID,98,VALID,0,
2009-12-19, 03:23:05,VALID,1001.78,VALID,0,VALID,93.1424,VALID,0,VALID,23.1159,VALID,98,VALID,0,
2009-12-19, 03:24:05,VALID,1001.79,VALID,0,VALID,93.0508,VALID,0,VALID,23.0751,VALID,98,VALID,0,
2009-12-19, 03:25:05,VALID,1001.78,VALID,0,VALID,93.028,VALID,0,VALID,23.0981,VALID,98,VALID,0,
2009-12-19, 03:26:05,VALID,1001.78,VALID,0,VALID,93.0508,VALID,0,VALID,23.0964,VALID,98,VALID,0,
2009-12-19, 03:27:05,VALID,1001.8,VALID,0,VALID,92.9974,VALID,0,VALID,23.0769,VALID,98,VALID,0,
2009-12-19, 03:28:05,VALID,1001.85,VALID,0,VALID,93.0051,VALID,0,VALID,23.0769,VALID,98,VALID,0,
2009-12-19, 03:29:05,VALID,1001.82,VALID,0,VALID,93.0051,VALID,0,VALID,23.0769,VALID,98,VALID,0,
2009-12-19, 03:30:05,VALID,1001.85,VALID,0,VALID,93.0356,VALID,0,VALID,23.0769,VALID,98,VALID,0,
2009-12-19, 03:31:05,VALID,1001.91,VALID,0,VALID,93.0356,VALID,0,VALID,23.0964,VALID,98,VALID,0,
2009-12-19, 03:32:05,VALID,1001.92,VALID,0,VALID,93.028,VALID,0,VALID,23.0964,VALID,98,VALID,0,
2009-12-19, 03:33:05,VALID,1001.96,VALID,0,VALID,93.0737,VALID,0,VALID,23.1159,VALID,98,VALID,0,
2009-12-19, 03:34:05,VALID,1001.99,VALID,0,VALID,93.0356,VALID,0,VALID,23.0964,VALID,98,VALID,0,
2009-12-19, 03:35:05,VALID,1002.05,VALID,0,VALID,93.0508,VALID,0,VALID,23.0769,VALID,98,VALID,0,
2009-12-19, 03:36:05,VALID,1002.04,VALID,0,VALID,93.1043,VALID,0,VALID,23.0964,VALID,98,VALID,0,
2009-12-19, 03:37:05,VALID,1002.05,VALID,0,VALID,93.1119,VALID,0,VALID,23.1159,VALID,98,VALID,0,
2009-12-19, 03:38:05,VALID,1002.04,VALID,0,VALID,93.089,VALID,0,VALID,23.0946,VALID,98,VALID,0,
2009-12-19, 03:39:05,VALID,1002.07,VALID,0,VALID,93.0966,VALID,0,VALID,23.0964,VALID,98,VALID,0,
2009-12-19, 03:40:05,VALID,1002.07,VALID,0,VALID,93.0814,VALID,0,VALID,23.0751,VALID,98,VALID,0,
2009-12-19, 03:41:05,VALID,1002.09,VALID,0,VALID,93.0966,VALID,0,VALID,23.0946,VALID,98,VALID,0,
2009-12-19, 03:42:05,VALID,1002.1,VALID,0,VALID,93.0585,VALID,0,VALID,23.0964,VALID,98,VALID,0,
2009-12-19, 03:43:05,VALID,1002.11,VALID,0,VALID,93.0508,VALID,0,VALID,23.0573,VALID,98,VALID,0,
2009-12-19, 03:44:05,VALID,1002.11,VALID,0,VALID,93.0585,VALID,0.112286,VALID,23.0573,VALID,98,VALID,0,
2009-12-19, 03:45:05,VALID,1002.11,VALID,0,VALID,93.1577,VALID,0,VALID,23.0769,VALID,98,VALID,0,
2009-12-19, 03:46:05,VALID,1002.09,VALID,0,VALID,93.2797,VALID,0,VALID,23.0946,VALID,107,VALID,0.527344,
2009-12-19, 03:47:05,VALID,1002.12,VALID,0,VALID,93.2874,VALID,0,VALID,23.1549,VALID,117,VALID,0.586719,
2009-12-19, 03:48:05,VALID,1002.12,VALID,0,VALID,93.234,VALID,0,VALID,23.1549,VALID,119,VALID,0.676953,
2009-12-19, 03:49:05,VALID,1002.08,VALID,0,VALID,93.2034,VALID,0,VALID,23.1549,VALID,129,VALID,0.633203,
2009-12-19, 03:50:05,VALID,1002.05,VALID,0,VALID,93.1271,VALID,0,VALID,23.1141,VALID,129,VALID,0.55,
2009-12-19, 03:51:05,VALID,1002.04,VALID,0,VALID,93.028,VALID,0,VALID,23.1354,VALID,126,VALID,0.552344,
2009-12-19, 03:52:05,VALID,1002.02,VALID,0,VALID,92.9669,VALID,0,VALID,23.1159,VALID,125,VALID,0.534375,